Perth, Western Australia

7:45 AM AWST on February 10, 2016 (GMT +0800)
Perth International

Weather History for YPPH - March, 2013

Change the Weather History Date:

Thursday, March 14, 2013

  Actual Average Record
Temperature  
Mean Temperature 65 °F -  
Max Temperature 71 °F 81 °F 96 °F (2002)
Min Temperature 59 °F 59 °F 46 °F (2008)
Growing Degree Days 15 (Base 50)    
Moisture  
Dew Point 52 °F    
Average Humidity 66    
Maximum Humidity 100    
Minimum Humidity 21    
Precipitation  
Precipitation 0.00 in 0.04 in - ()
Sea Level Pressure  
Sea Level Pressure 29.91 in    
Wind  
Wind Speed 12 mph ()    
Max Wind Speed 18 mph    
Max Gust Speed 17 mph    
Visibility 7.1 miles    
Events Rain , Thunderstorm    
Averages and records for this station are not official NWS values.
T = Trace of Precipitation, MM = Missing Value Source: Averaged Metar Reports

Daily Weather History Graph

Daily Weather History Graph

Search for Another Location

Airport or City:

Trip Planner

Search our weather history database for the weather conditions in past years. The results will help you decide how hot, cold, wet, or windy it might be!

Date:

Astronomy

Mar. 14, 2013 Rise Set
Actual Time 6:15 AM AWST 6:35 PM AWST
Civil Twilight 5:50 AM AWST 6:59 PM AWST
Nautical Twilight 5:22 AM AWST 7:28 PM AWST
Astronomical Twilight 4:53 AM AWST 7:57 PM AWST
Moon 8:25 AM AWST (3/14) 7:50 PM AWST (3/14)
Length of Visible Light 13h 08m
Length of Day
12h 20m
Waxing Crescent, 6% of the Moon is Illuminated
Mar 14
Waxing Crescent
Mar 20
First Quarter
Mar 27
Full
Apr 3
Last Quarter
Apr 10
New

Hourly Weather History & Observations

Time (AWST) Temp. Dew Point Humidity Pressure Visibility Wind Dir Wind Speed Gust Speed Precip Events Conditions
12:00 AM 71 °F 40 °F 21% 29.97 in 19 mi ENE 10.4 mph - -   Partly Cloudy
12:00 AM 71.6 °F 39.2 °F 31% 29.98 in - ENE 10.4 mph - N/A   Clear
12:30 AM 69.8 °F 39.2 °F 33% 29.95 in - ENE 12.7 mph - N/A   Clear
1:00 AM 69.8 °F 41.0 °F 35% 29.95 in - NE 11.5 mph - N/A   Clear
1:30 AM 69.8 °F 41.0 °F 35% 29.95 in - NE 13.8 mph - N/A   Clear
2:00 AM 69 °F 40 °F 24% 29.95 in - ENE 15.0 mph - -  
2:00 AM 69.8 °F 41.0 °F 35% 29.95 in - ENE 15.0 mph - N/A   Clear
2:30 AM 69.8 °F 41.0 °F 35% 29.95 in - East 15.0 mph - N/A   Clear
3:00 AM 68 °F 42 °F 27% 29.92 in 19 mi East 15.0 mph - -   Partly Cloudy
3:00 AM 68.0 °F 41.0 °F 37% 29.92 in - East 15.0 mph - N/A   Clear
3:30 AM 68.0 °F 42.8 °F 40% 29.89 in - East 15.0 mph - N/A   Clear
4:00 AM 68.0 °F 42.8 °F 40% 29.92 in - ENE 16.1 mph - N/A   Clear
4:30 AM 68.0 °F 42.8 °F 40% 29.92 in - ENE 12.7 mph - N/A   Clear
5:00 AM 68 °F 44 °F 30% 29.93 in - ENE 11.5 mph - -  
5:00 AM 68.0 °F 42.8 °F 40% 29.92 in - ENE 11.5 mph - N/A   Clear
5:30 AM 66.2 °F 42.8 °F 43% 29.89 in - East 17.3 mph - N/A   Clear
6:00 AM 67 °F 44 °F 32% 29.94 in 19 mi ENE 12.7 mph - -   Partly Cloudy
6:00 AM 66.2 °F 44.6 °F 46% 29.92 in - ENE 12.7 mph - N/A   Clear
6:30 AM 66.2 °F 44.6 °F 46% 29.98 in - ENE 13.8 mph - N/A   Clear
7:00 AM 66.2 °F 46.4 °F 49% 29.98 in 6.2 mi East 16.1 mph - N/A   Mostly Cloudy
7:30 AM 64.4 °F 48.2 °F 56% 29.95 in 6.2 mi ENE 17.3 mph - N/A   Mostly Cloudy
8:00 AM 64 °F 49 °F 47% 29.93 in - ENE 18.4 mph - -  
8:00 AM 64.4 °F 48.2 °F 56% 29.92 in - ENE 18.4 mph - N/A   Clear
8:30 AM 64.4 °F 50.0 °F 59% 29.92 in 6.2 mi East 12.7 mph - N/A Rain Light Rain Showers
9:00 AM 63 °F 51 °F 57% 29.97 in 12 mi ESE 8.1 mph - - Rain Light Rain
9:00 AM 62.6 °F 51.8 °F 68% 29.95 in 6.2 mi ESE 8.1 mph - N/A Rain Light Rain
9:33 AM 60.8 °F 55.4 °F 82% 30.01 in 3.7 mi ENE 5.8 mph - N/A Rain Rain
10:00 AM 59.0 °F 55.4 °F 88% 30.01 in 5.0 mi ENE 9.2 mph - N/A Rain Rain
10:30 AM 60.8 °F 55.4 °F 82% 29.98 in 5.6 mi ENE 13.8 mph - N/A Rain Light Rain
11:00 AM 62 °F 55 °F 73% 29.96 in - East 17.3 mph - -  
11:00 AM 62.6 °F 55.4 °F 77% 29.95 in 6.2 mi East 17.3 mph - N/A   Mostly Cloudy
11:30 AM 62.6 °F 55.4 °F 77% 29.92 in 6.2 mi East 17.3 mph - N/A   Mostly Cloudy
12:00 PM 63 °F 56 °F 70% 29.89 in 16 mi SE 12.7 mph - -   Scattered Clouds
12:00 PM 62.6 °F 55.4 °F 77% 29.89 in 6.2 mi SE 12.7 mph - N/A   Mostly Cloudy
12:23 PM 64.4 °F 55.4 °F 73% 29.92 in 6.2 mi SE 5.8 mph - N/A Rain , Thunderstorm Light Thunderstorms and Rain
12:30 PM 62.6 °F 57.2 °F 82% 29.95 in 3.7 mi WSW 5.8 mph - N/A Rain , Thunderstorm Light Thunderstorms and Rain
1:00 PM 62.6 °F 57.2 °F 82% 29.95 in 3.7 mi WSW 5.8 mph - N/A Rain Rain Showers
1:30 PM 60.8 °F 59.0 °F 94% 29.95 in 3.7 mi ENE 6.9 mph 11.5 mph N/A Rain Rain
2:00 PM 60.8 °F 60.8 °F 100% 29.92 in 3.7 mi SE 8.1 mph 13.8 mph N/A Rain , Thunderstorm Light Thunderstorms and Rain
2:10 PM 60.8 °F 59.0 °F 94% 30.01 in 1.2 mi ENE 5.8 mph 8.1 mph N/A Rain , Thunderstorm Thunderstorms and Rain
2:16 PM 60.8 °F 59.0 °F 94% 29.92 in 0.9 mi ESE 13.8 mph 17.3 mph N/A Rain , Thunderstorm Thunderstorms and Rain
2:30 PM 60.8 °F 59.0 °F 94% 29.92 in 3.7 mi East 11.5 mph 15.0 mph N/A Rain , Thunderstorm Light Thunderstorms and Rain
3:00 PM 62.6 °F 60.8 °F 94% 29.86 in 6.2 mi East 15.0 mph - N/A   Mostly Cloudy
3:30 PM 62.6 °F 59.0 °F 88% 29.86 in 3.7 mi ENE 17.3 mph - N/A   Mostly Cloudy
3:53 PM 62.6 °F 60.8 °F 94% 29.86 in 3.7 mi ENE 13.8 mph - N/A Rain Light Rain Showers
4:14 PM 64.4 °F 60.8 °F 88% 29.86 in 6.2 mi NNE 8.1 mph - N/A   Mostly Cloudy
4:30 PM 64.4 °F 60.8 °F 88% 29.86 in 6.2 mi ENE 5.8 mph - N/A Rain , Thunderstorm Light Thunderstorms and Rain
5:00 PM 64 °F 61 °F 85% 29.88 in - SE 6.9 mph - -  
5:00 PM 64.4 °F 60.8 °F 88% 29.86 in 5.6 mi SE 6.9 mph - N/A Rain , Thunderstorm Light Thunderstorms and Rain
5:30 PM 64.4 °F 60.8 °F 88% 29.83 in 6.2 mi East 12.7 mph - N/A   Mostly Cloudy
6:00 PM 64 °F 60 °F 84% 29.84 in 16 mi East 11.5 mph - -   Partly Cloudy
6:00 PM 64.4 °F 60.8 °F 88% 29.83 in 6.2 mi East 11.5 mph - N/A   Mostly Cloudy
7:30 PM 64.4 °F 59.0 °F 83% 29.83 in 6.2 mi ENE 18.4 mph - N/A   Mostly Cloudy
8:00 PM 65 °F 60 °F 78% 29.83 in - ENE 17.3 mph - -  
8:00 PM 64.4 °F 60.8 °F 88% 29.83 in - ENE 17.3 mph - N/A   Clear
8:30 PM 66.2 °F 59.0 °F 78% 29.86 in - NE 18.4 mph - N/A   Clear
9:00 PM 66.2 °F 59.0 °F 78% 29.86 in - ENE 18.4 mph - N/A   Clear
10:00 PM 66.2 °F 59.0 °F 78% 29.83 in - ENE 16.1 mph - N/A   Clear
10:30 PM 66.2 °F 59.0 °F 78% 29.83 in - ENE 15.0 mph - N/A   Clear
11:00 PM 66 °F 60 °F 75% 29.83 in - ENE 12.7 mph - -  
11:00 PM 66.2 °F 60.8 °F 83% 29.83 in - ENE 12.7 mph - N/A   Clear
11:30 PM 66.2 °F 59.0 °F 78% 29.80 in 6.2 mi NE 16.1 mph - N/A   Mostly Cloudy